Temp
12 12 12 13 13 13 13 13 13 13 13 13 13 13 13 13 13 13 13 13 13 13 13 13 13 13 13 13 13 13 13 13 13 13 13 13 12 12 13 13 13 13 13 13 12 12 11 11 11 11 11 11 11 11 11 11 10 10 10 10 10 9 9 9 9 9 9 9 9
12 12 12 12 12 12 13 13 13 12 12 13 13 13 13 13 13 13 12 12 13 13 13 13 13 13 13 13 13 13 13 13 13 13 13 13 12 12 13 13 13 13 13 12 12 12 12 12 12 11 11 11 11 11 11 11 11 10 10 10 10 9 9 9 9 9 9 9 9
11 11 12 12 12 12 12 12 12 12 12 12 12 12 12 12 12 12 12 12 12 12 13 13 13 13 13 13 13 13 13 12 12 12 13 13 12 12 13 13 13 12 12 12 12 12 12 12 11 11 11 11 11 11 11 11 11 11 10 10 10 10 10 9 9 10 10 10 9
11 11 11 11 11 12 12 12 12 12 12 12 12 12 12 12 12 12 12 12 12 12 12 12 13 13 13 13 12 12 12 12 12 12 12 12 12 13 13 13 12 12 12 12 12 11 11 11 11 11 11 11 11 11 11 11 11 11 11 10 10 10 10 10 10 10 10 10 10
11 11 11 11 11 11 11 11 11 11 11 12 12 12 12 12 12 12 12 12 12 12 12 12 12 12 12 12 12 12 12 12 12 12 12 12 12 12 13 13 12 11 11 11 11 11 10 10 10 10 10 10 10 10 10 11 11 10 10 10 10 10 10 10 10 10 10 10 10
11 11 11 11 11 11 11 11 11 11 11 11 11 12 12 11 11 11 11 11 11 12 12 12 12 12 12 12 12 12 12 11 11 11 11 12 12 12 12 12 11 11 11 11 10 10 10 10 10 10 10 10 10 10 10 10 10 10 10 10 10 10 10 10 10 10 10 10 10
11 11 11 11 11 11 11 11 11 11 11 11 11 11 11 11 11 11 11 11 11 11 11 11 11 11 11 11 11 11 11 11 11 11 11 11 11 11 11 11 11 11 11 11 11 11 11 11 11 11 11 10 10 10 10 10 10 10 10 10 10 10 10 10 9 9 9 9 9
11 11 11 11 11 11 11 11 11 11 11 11 11 11 11 11 11 11 11 11 11 11 11 11 11 11 11 11 11 11 11 11 11 11 11 11 11 11 11 11 10 11 11 11 11 11 11 11 11 11 11 10 10 10 10 10 9 9 9 9 9 9 9 9 9 9 8 8 8
10 10 10 10 10 10 10 10 10 11 11 11 11 11 11 11 11 11 11 11 11 11 11 11 11 11 11 11 11 11 11 11 11 12 12 12 12 12 12 12 11 11 11 12 12 12 11 11 11 11 11 10 10 10 9 9 9 9 9 9 9 9 8 8 8 8 8 8 8
10 10 10 10 10 10 10 10 10 10 11 11 11 11 11 11 11 12 12 12 12 11 11 11 11 11 11 11 11 11 11 11 11 11 12 11 11 11 11 11 11 11 11 11 11 11 11 11 10 10 10 10 10 9 9 9 9 9 8 8 8 8 8 8 7 7 7 7 7
10 10 10 10 10 10 10 10 10 10 10 11 11 11 11 11 11 11 11 11 11 11 11 11 11 11 11 11 11 11 11 11 11 11 11 11 11 11 11 11 11 11 11 10 10 10 10 10 10 10 9 9 9 9 9 8 8 8 8 8 8 7 7 7 7 7 7 7 7
9 10 10 10 10 10 10 10 10 10 10 10 11 11 11 11 11 11 11 11 11 11 11 11 11 11 11 11 11 11 11 11 11 11 11 11 11 11 11 11 10 10 10 10 9 9 9 9 9 9 9 9 9 8 8 8 8 8 7 7 7 7 7 7 7 6 6 7 7
9 9 9 9 9 9 10 10 10 10 10 10 10 11 11 11 11 11 11 11 11 11 11 11 11 11 11 11 11 11 11 11 11 11 11 11 11 11 10 10 10 9 9 9 9 9 8 8 8 8 8 8 8 8 8 8 8 7 7 7 7 7 7 6 6 6 6 6 7
9 9 9 9 9 9 9 9 9 9 10 10 10 10 10 10 10 10 10 10 10 10 10 10 10 10 10 11 11 11 11 11 11 11 11 10 10 10 10 9 9 9 8 8 8 8 8 8 8 8 8 8 8 8 8 7 7 7 7 7 7 7 6 6 6 6 6 6 6
8 8 9 9 9 9 9 9 9 9 9 9 9 9 9 10 10 10 10 10 10 10 10 10 10 10 10 10 10 10 10 10 10 10 10 10 10 10 9 9 9 8 8 8 8 8 8 8 8 8 8 8 8 7 7 7 7 7 7 7 7 7 6 6 6 6 6 6 6
8 8 8 8 8 8 8 8 8 9 9 9 9 9 9 9 9 9 9 9 9 9 10 10 10 10 10 10 10 10 10 10 10 10 10 10 10 9 9 9 9 8 8 8 8 8 8 8 7 7 7 7 7 7 7 7 7 7 7 7 6 6 6 6 6 6 6 6 6
8 8 8 8 8 8 8 8 8 8 8 8 9 9 9 9 9 9 9 9 9 9 9 9 9 9 9 10 10 10 10 10 10 10 10 9 9 9 9 9 8 8 8 8 8 7 7 7 7 7 7 7 7 7 7 7 6 6 6 6 6 6 6 6 6 5 5 5 5
7 7 7 7 7 7 8 8 8 8 8 8 8 8 8 8 8 8 8 8 9 9 9 9 9 9 9 9 9 9 9 9 9 9 9 8 8 8 8 8 8 8 7 7 7 7 7 7 6 6 6 6 6 6 6 6 6 6 6 6 6 6 6 5 5 5 5 5 4
6 7 7 7 7 7 7 7 7 7 7 7 8 8 8 8 8 8 8 8 8 8 9 9 9 9 9 9 9 8 8 8 8 8 7 7 7 7 7 7 7 7 7 6 6 6 6 6 6 6 6 6 6 6 6 6 6 6 6 5 5 5 5 5 4 4 4 4 4
6 6 6 6 6 6 7 7 7 7 7 7 7 7 7 7 7 8 8 8 8 8 8 8 8 8 8 8 8 8 7 7 7 7 6 6 6 6 6 6 6 6 6 6 6 6 6 6 6 6 6 6 6 6 6 6 5 5 5 5 4 4 4 4 4 4 3 3 3
6 6 6 6 6 6 6 6 6 6 6 6 6 7 7 7 7 7 8 8 8 8 8 8 8 8 7 7 7 7 7 7 6 6 6 5 5 5 5 5 5 5 6 6 6 6 6 6 6 6 6 6 6 6 5 5 5 4 4 4 4 4 4 3 3 3 3 2 2
5 5 5 5 6 6 6 6 6 6 6 6 6 6 7 7 7 7 7 7 7 7 7 7 7 7 7 7 7 6 6 6 6 5 5 5 5 5 5 5 5 5 6 6 6 6 6 6 6 6 6 6 5 5 5 4 4 4 4 4 3 3 3 3 2 2 2 2 1
5 5 5 5 5 5 5 5 5 6 6 6 6 6 6 7 7 7 7 7 7 7 7 7 7 7 7 6 6 6 6 6 6 5 5 5 5 5 5 5 5 6 6 6 6 6 6 6 6 6 6 5 5 5 4 4 4 4 3 3 3 2 2 2 2 1 1 1 1
4 4 5 5 5 5 5 5 5 5 6 6 6 6 6 6 6 6 6 6 6 6 6 6 6 6 6 6 6 6 6 6 5 5 5 5 5 6 6 6 6 6 6 6 6 6 6 6 5 5 5 4 4 4 4 3 3 3 2 2 2 2 1 1 1 1 1 0 0
4 4 4 4 5 5 5 5 5 5 5 5 5 6 6 6 6 6 6 6 6 6 6 6 6 6 6 6 6 6 6 5 5 5 5 5 5 5 5 6 6 6 6 5 5 5 5 5 5 4 4 4 3 3 3 3 2 2 2 2 1 1 1 1 1 1 0 0 -0
4 4 4 4 4 4 4 4 4 4 4 5 5 5 5 5 5 5 6 6 6 6 6 6 6 6 6 6 5 5 5 5 5 5 5 5 5 5 5 5 5 5 4 4 4 4 4 4 4 4 3 3 3 3 3 2 2 2 2 1 1 1 1 1 1 0 0 0 -0
4 4 4 4 4 4 4 4 4 4 4 4 4 5 5 5 5 5 5 5 5 5 5 5 5 5 5 5 5 5 4 4 4 4 4 4 4 4 4 4 4 4 4 4 3 3 3 3 3 3 3 3 3 3 2 2 2 2 2 1 1 1 1 1 1 1 0 0 0
3 3 3 3 3 3 3 3 3 3 4 4 4 4 4 5 5 5 5 5 5 5 5 5 5 5 4 4 4 4 4 4 4 4 4 4 4 4 4 4 3 3 3 3 3 2 2 2 2 2 2 2 2 2 2 2 2 2 2 1 1 1 1 1 1 1 0 0 0
3 2 3 3 3 3 3 3 3 3 3 4 4 4 4 4 4 5 5 4 4 4 4 4 4 4 4 4 4 4 4 3 4 4 4 4 4 4 3 3 3 3 3 2 2 2 2 2 2 2 2 1 1 1 1 1 1 1 1 1 1 1 1 1 1 1 1 0 0
2 2 2 2 2 3 3 3 3 3 3 3 3 4 4 4 4 4 4 4 4 3 3 3 3 3 3 3 3 3 3 3 3 3 3 3 3 3 3 3 3 2 2 2 2 1 1 1 1 1 1 1 1 1 1 1 1 1 1 1 1 1 1 1 1 0 0 0 0
1 1 1 2 2 2 2 2 2 3 3 3 3 4 4 4 4 3 3 3 3 3 3 2 2 2 2 2 2 3 3 3 2 2 2 2 2 2 2 2 2 2 2 1 1 1 1 1 1 1 1 1 1 1 1 1 1 1 1 1 1 1 0 0 0 -0 -0 -0 -0
1 1 1 1 1 1 1 2 2 2 3 3 3 3 3 3 3 2 2 2 2 2 2 2 2 2 2 2 2 2 2 2 2 2 2 2 2 2 2 2 2 2 1 1 1 1 1 1 1 1 1 1 1 1 1 1 1 1 1 0 0 0 0 -0 -0 -0 -1 -1 -1
0 0 -0 0 0 1 1 1 2 2 2 2 2 2 2 2 2 2 2 2 1 1 1 1 1 1 2 2 2 2 2 2 2 2 2 2 2 2 2 2 2 1 1 1 1 1 1 1 1 1 1 1 1 1 1 1 1 1 0 0 0 -0 -0 -0 -1 -1 -1 -1 -1
-0 -1 -0 -0 -0 0 1 1 1 1 2 2 2 2 1 1 1 1 1 1 1 1 1 1 1 1 1 2 2 2 2 2 2 2 2 2 2 1 2 2 2 1 1 1 1 1 1 1 1 1 1 1 1 1 1 1 1 1 0 0 0 -0 -0 -1 -1 -1 -1 -1 -1
-1 -1 -1 -1 -0 0 0 1 1 1 1 1 1 1 1 1 1 1 1 1 1 1 1 1 1 1 1 1 1 2 2 2 2 2 2 1 1 1 1 1 1 1 1 1 1 1 1 1 1 1 1 1 1 1 1 1 1 1 0 0 -0 -0 -0 -1 -1 -1 -1 -1 -1
-1 -1 -1 -0 -0 0 0 0 0 1 1 1 1 1 1 0 0 0 0 0 0 1 1 1 1 1 1 1 1 2 2 2 2 2 1 1 1 1 1 1 1 1 1 1 1 1 1 1 1 1 1 1 1 1 1 1 1 0 0 -0 -0 -0 -1 -1 -1 -1 -1 -1 -1
-1 -1 -1 -0 0 0 0 0 0 0 0 1 0 0 0 0 0 0 0 0 0 1 1 1 1 1 1 1 1 2 2 1 1 1 1 1 1 1 1 1 1 1 1 1 1 1 1 1 1 1 1 1 1 1 1 0 0 0 -0 -0 -1 -1 -1 -1 -1 -1 -1 -1 -1
-1 -0 -0 -0 0 0 0 0 0 0 0 0 0 0 0 0 0 0 0 -0 0 0 1 1 1 1 1 1 1 1 1 1 1 1 1 1 1 1 1 1 1 1 1 1 1 1 1 1 1 1 1 0 0 0 -0 -0 -0 -0 -1 -1 -1 -1 -1 -1 -1 -1 -1 -1 -1
-0 0 0 0 0 0 0 0 0 0 0 0 0 0 0 1 0 0 0 -0 0 0 1 1 1 1 1 1 1 1 2 2 2 1 1 1 1 1 1 1 1 1 1 1 1 1 0 0 0 0 -0 -0 -0 -0 -0 -1 -1 -1 -1 -1 -1 -1 -1 -1 -1 -1 -2 -2 -2
0 1 1 1 1 0 0 0 0 0 0 0 1 1 1 1 0 0 0 0 0 0 1 1 1 1 1 1 1 1 2 2 2 1 1 1 1 1 1 1 1 1 1 1 0 0 0 -0 -0 -0 -0 -0 -0 -0 -0 -1 -1 -1 -1 -1 -1 -1 -1 -1 -1 -2 -2 -2 -3
1 1 1 1 1 1 1 1 1 1 1 1 1 1 1 1 0 0 0 0 0 1 1 1 1 2 2 2 1 1 1 1 1 1 1 1 1 1 1 1 1 1 1 0 0 -0 -0 -0 -0 -0 -0 -1 -1 -1 -1 -1 -1 -1 -1 -1 -2 -2 -2 -2 -2 -2 -2 -3 -3
Height
1504 1504 1504 1504 1504 1504 1505 1505 1506 1506 1507 1507 1508 1508 1508 1508 1508 1508 1508 1508 1508 1508 1508 1509 1509 1510 1511 1511 1511 1511 1511 1511 1512 1512 1512 1512 1512 1512 1512 1512 1512 1512 1512 1512 1512 1511 1511 1511 1511 1511 1511 1511 1511 1511 1511 1511 1511 1511 1511 1511 1511 1511 1510 1510 1510 1510 1510 1509 1509
1504 1504 1503 1503 1503 1503 1504 1504 1505 1505 1506 1506 1506 1507 1507 1507 1507 1506 1506 1506 1506 1506 1507 1507 1508 1509 1509 1510 1510 1511 1511 1511 1511 1511 1511 1511 1511 1511 1511 1511 1511 1511 1511 1510 1510 1510 1510 1510 1510 1510 1510 1510 1510 1510 1510 1510 1509 1509 1509 1509 1509 1509 1508 1508 1508 1508 1508 1507 1507
1503 1503 1503 1503 1503 1503 1503 1503 1504 1504 1504 1505 1505 1506 1506 1506 1506 1505 1505 1505 1505 1506 1506 1506 1507 1507 1508 1508 1509 1509 1509 1509 1510 1510 1510 1510 1510 1510 1510 1510 1510 1509 1509 1509 1509 1509 1509 1509 1509 1509 1509 1509 1508 1508 1508 1508 1507 1507 1507 1507 1507 1507 1507 1506 1506 1506 1506 1506 1506
1503 1503 1503 1503 1503 1503 1503 1503 1503 1503 1503 1503 1504 1505 1505 1505 1504 1504 1504 1504 1504 1504 1505 1505 1506 1506 1506 1507 1507 1507 1508 1508 1508 1508 1508 1508 1508 1508 1509 1508 1508 1508 1508 1508 1508 1508 1508 1508 1508 1507 1507 1507 1506 1506 1506 1506 1506 1506 1505 1505 1505 1505 1505 1505 1505 1504 1504 1504 1504
1502 1502 1502 1502 1502 1502 1502 1502 1502 1501 1501 1502 1503 1503 1503 1503 1503 1503 1503 1503 1503 1503 1504 1504 1505 1505 1505 1506 1506 1506 1506 1507 1507 1507 1507 1507 1507 1507 1507 1507 1507 1507 1507 1507 1507 1507 1506 1506 1506 1506 1505 1505 1505 1505 1505 1504 1504 1504 1504 1504 1504 1504 1504 1503 1503 1503 1502 1501 1501
1502 1502 1502 1502 1502 1502 1502 1501 1501 1500 1501 1501 1501 1502 1502 1502 1502 1502 1502 1502 1502 1502 1502 1503 1503 1504 1504 1504 1505 1505 1505 1506 1506 1506 1506 1506 1506 1506 1506 1506 1506 1506 1506 1506 1506 1506 1505 1505 1505 1504 1504 1504 1504 1503 1503 1503 1503 1503 1503 1503 1503 1502 1502 1501 1501 1501 1500 1499 1498
1501 1501 1501 1501 1501 1501 1501 1500 1500 1499 1500 1500 1501 1501 1501 1501 1502 1502 1502 1502 1502 1502 1502 1502 1502 1503 1503 1503 1504 1504 1504 1504 1505 1505 1505 1505 1505 1505 1505 1505 1505 1504 1504 1504 1504 1504 1504 1504 1503 1503 1503 1503 1502 1502 1502 1502 1502 1502 1501 1501 1501 1501 1500 1500 1499 1498 1498 1497 1496
1501 1501 1501 1501 1501 1500 1500 1499 1499 1499 1499 1500 1500 1501 1501 1501 1501 1501 1501 1501 1501 1501 1501 1501 1501 1502 1502 1502 1503 1503 1503 1503 1503 1503 1503 1503 1503 1503 1503 1503 1503 1503 1503 1503 1503 1502 1502 1502 1502 1501 1501 1501 1501 1501 1501 1501 1500 1500 1500 1499 1499 1499 1498 1498 1497 1496 1496 1495 1495
1501 1501 1500 1500 1500 1499 1499 1498 1498 1498 1499 1499 1500 1500 1501 1501 1501 1501 1501 1501 1501 1501 1501 1501 1501 1501 1501 1501 1501 1502 1502 1502 1502 1502 1502 1502 1502 1501 1501 1501 1501 1501 1501 1501 1501 1501 1501 1501 1500 1500 1500 1500 1500 1499 1499 1499 1499 1498 1498 1497 1497 1497 1496 1496 1495 1495 1494 1493 1493
1500 1500 1500 1499 1499 1499 1498 1498 1498 1498 1498 1499 1499 1500 1500 1500 1500 1500 1500 1500 1500 1500 1500 1500 1499 1499 1500 1500 1500 1500 1501 1501 1501 1501 1500 1500 1500 1500 1500 1500 1500 1499 1499 1499 1499 1499 1499 1499 1499 1498 1498 1498 1498 1497 1497 1497 1497 1496 1496 1496 1495 1495 1495 1494 1494 1493 1492 1492 1491
1499 1499 1499 1499 1498 1498 1498 1497 1497 1497 1498 1498 1499 1499 1499 1499 1499 1499 1499 1499 1499 1499 1499 1499 1498 1498 1498 1498 1499 1499 1499 1499 1499 1499 1499 1499 1498 1498 1498 1498 1498 1497 1497 1497 1497 1497 1497 1497 1496 1496 1496 1496 1496 1496 1495 1495 1495 1494 1494 1494 1493 1493 1493 1492 1492 1492 1491 1491 1490
1498 1498 1498 1498 1497 1497 1497 1497 1497 1497 1497 1497 1498 1498 1498 1498 1498 1498 1498 1498 1498 1498 1498 1497 1497 1497 1497 1497 1497 1497 1497 1497 1497 1497 1497 1497 1497 1496 1496 1496 1496 1496 1496 1495 1495 1495 1495 1495 1495 1495 1495 1494 1494 1494 1493 1493 1493 1493 1492 1492 1492 1491 1491 1491 1491 1490 1490 1490 1489
1497 1497 1497 1497 1496 1496 1496 1496 1496 1496 1496 1496 1497 1497 1497 1497 1497 1497 1497 1497 1497 1497 1496 1496 1496 1496 1495 1495 1496 1496 1496 1496 1496 1496 1495 1495 1495 1495 1494 1494 1494 1494 1494 1493 1493 1493 1494 1493 1493 1493 1493 1493 1492 1492 1491 1491 1491 1491 1491 1491 1491 1490 1490 1490 1489 1489 1489 1488 1488
1496 1496 1496 1496 1496 1496 1495 1495 1495 1495 1495 1496 1496 1496 1496 1496 1496 1496 1496 1496 1496 1495 1495 1495 1494 1494 1494 1494 1494 1494 1494 1494 1494 1493 1493 1493 1493 1493 1492 1492 1492 1492 1492 1492 1492 1492 1492 1492 1491 1491 1491 1491 1491 1490 1490 1490 1490 1490 1490 1489 1489 1489 1488 1488 1488 1488 1487 1487 1487
1495 1495 1495 1495 1495 1494 1494 1494 1494 1494 1494 1494 1494 1495 1495 1495 1495 1495 1495 1494 1494 1494 1494 1493 1493 1493 1492 1492 1492 1492 1492 1492 1492 1492 1491 1491 1491 1491 1491 1491 1490 1490 1490 1490 1490 1490 1490 1490 1490 1490 1490 1490 1489 1489 1489 1489 1488 1488 1488 1488 1488 1487 1487 1487 1487 1486 1486 1486 1485
1493 1493 1493 1493 1493 1493 1493 1493 1493 1493 1493 1493 1493 1493 1493 1493 1493 1493 1493 1493 1493 1492 1492 1492 1492 1491 1491 1491 1491 1491 1491 1490 1490 1490 1490 1490 1489 1489 1489 1489 1489 1489 1489 1489 1489 1488 1488 1489 1488 1488 1488 1488 1488 1488 1487 1487 1487 1487 1487 1487 1486 1486 1486 1486 1486 1485 1485 1484 1484
1492 1492 1492 1492 1492 1492 1492 1492 1491 1491 1491 1491 1491 1492 1492 1492 1492 1492 1492 1491 1491 1491 1491 1491 1491 1490 1490 1489 1489 1489 1489 1489 1489 1488 1488 1488 1488 1488 1488 1487 1487 1487 1487 1487 1487 1487 1487 1487 1487 1487 1487 1487 1487 1486 1486 1486 1486 1486 1486 1486 1485 1485 1485 1485 1484 1484 1484 1483 1482
1491 1491 1491 1491 1491 1491 1490 1490 1490 1490 1490 1490 1490 1490 1490 1490 1490 1490 1490 1490 1490 1490 1489 1489 1489 1489 1488 1488 1488 1488 1487 1487 1487 1487 1487 1487 1487 1486 1486 1486 1486 1486 1486 1486 1486 1486 1486 1486 1486 1486 1486 1486 1486 1486 1485 1485 1485 1485 1485 1484 1484 1484 1484 1483 1483 1483 1482 1482 1481
1489 1489 1489 1489 1489 1489 1489 1489 1488 1488 1488 1488 1488 1488 1488 1488 1488 1488 1488 1488 1488 1488 1488 1488 1487 1487 1487 1487 1487 1487 1486 1486 1486 1486 1486 1486 1486 1486 1486 1485 1485 1486 1486 1486 1486 1486 1486 1486 1485 1485 1485 1485 1485 1484 1484 1484 1484 1483 1483 1483 1483 1483 1482 1482 1481 1481 1481 1481 1480
1487 1487 1487 1487 1487 1487 1487 1487 1487 1487 1487 1487 1487 1487 1487 1486 1486 1486 1486 1486 1486 1486 1486 1486 1486 1486 1486 1486 1486 1486 1486 1486 1486 1485 1485 1485 1485 1485 1484 1484 1484 1485 1485 1485 1485 1485 1485 1485 1484 1484 1484 1484 1483 1483 1482 1482 1482 1482 1482 1482 1482 1481 1481 1481 1481 1480 1480 1479 1479
1486 1486 1486 1486 1486 1486 1485 1485 1485 1485 1485 1485 1485 1485 1485 1485 1485 1485 1485 1485 1485 1485 1485 1485 1485 1485 1485 1485 1485 1485 1485 1485 1485 1485 1484 1484 1484 1484 1483 1483 1483 1484 1484 1484 1484 1484 1483 1483 1483 1483 1483 1482 1482 1481 1481 1481 1481 1481 1481 1481 1481 1481 1480 1480 1479 1479 1479 1478 1478
1484 1484 1484 1484 1484 1484 1484 1484 1483 1483 1483 1484 1484 1484 1484 1484 1484 1484 1484 1484 1484 1484 1484 1484 1484 1485 1485 1485 1485 1485 1485 1485 1484 1484 1483 1483 1483 1483 1483 1482 1482 1483 1483 1482 1482 1482 1482 1482 1482 1482 1481 1481 1481 1481 1480 1480 1480 1480 1480 1480 1480 1480 1479 1479 1479 1478 1478 1478 1478
1482 1482 1482 1482 1482 1482 1482 1482 1482 1482 1482 1482 1482 1482 1482 1482 1483 1483 1483 1483 1483 1483 1483 1484 1484 1484 1484 1484 1484 1484 1484 1484 1483 1483 1482 1482 1482 1482 1482 1482 1482 1481 1481 1481 1481 1481 1481 1481 1481 1481 1480 1480 1480 1479 1479 1479 1479 1479 1479 1479 1479 1479 1479 1478 1478 1478 1478 1478 1478
1481 1481 1481 1481 1481 1481 1481 1481 1481 1481 1481 1481 1481 1481 1481 1482 1482 1482 1482 1482 1482 1483 1483 1483 1483 1483 1483 1483 1483 1483 1483 1482 1482 1482 1481 1481 1481 1481 1481 1481 1481 1481 1481 1481 1480 1480 1480 1480 1480 1480 1479 1479 1479 1479 1478 1478 1478 1478 1478 1478 1478 1478 1478 1478 1478 1478 1478 1478 1478
1481 1480 1480 1480 1481 1481 1481 1480 1480 1480 1480 1480 1481 1481 1481 1481 1481 1481 1481 1482 1482 1482 1482 1482 1483 1483 1483 1483 1482 1482 1482 1481 1481 1481 1480 1480 1480 1480 1480 1480 1480 1480 1480 1480 1480 1479 1479 1479 1479 1479 1479 1479 1478 1478 1478 1478 1478 1478 1478 1478 1478 1478 1478 1478 1478 1478 1478 1478 1478
1480 1480 1480 1480 1480 1480 1480 1480 1480 1480 1480 1480 1480 1480 1481 1481 1481 1481 1481 1481 1481 1482 1482 1482 1482 1482 1482 1482 1481 1481 1481 1481 1480 1480 1480 1479 1479 1479 1479 1479 1479 1479 1479 1479 1479 1479 1479 1479 1479 1479 1479 1479 1478 1478 1478 1478 1478 1478 1478 1478 1479 1479 1479 1479 1478 1478 1478 1478 1478
1479 1479 1479 1479 1479 1479 1479 1480 1480 1480 1480 1480 1480 1480 1480 1480 1480 1481 1481 1481 1481 1481 1481 1481 1481 1481 1481 1481 1481 1481 1480 1480 1480 1479 1479 1479 1479 1478 1478 1478 1478 1478 1478 1478 1478 1478 1479 1479 1479 1479 1478 1478 1478 1478 1478 1478 1478 1478 1478 1479 1479 1479 1479 1479 1478 1478 1478 1478 1478
1479 1479 1479 1479 1479 1479 1479 1479 1479 1479 1480 1480 1480 1480 1480 1480 1480 1480 1481 1481 1481 1481 1481 1481 1481 1481 1481 1481 1480 1480 1480 1479 1479 1479 1479 1478 1478 1478 1478 1477 1477 1477 1478 1478 1478 1478 1478 1478 1478 1478 1478 1478 1478 1478 1478 1478 1478 1479 1479 1479 1479 1479 1479 1479 1479 1479 1479 1479 1479
1479 1478 1478 1479 1479 1479 1479 1479 1479 1479 1480 1480 1480 1480 1480 1480 1480 1480 1481 1481 1481 1481 1481 1481 1481 1481 1480 1480 1480 1480 1479 1479 1479 1478 1478 1478 1478 1478 1477 1477 1477 1478 1478 1478 1478 1478 1479 1479 1479 1479 1479 1479 1479 1479 1478 1479 1479 1479 1479 1479 1479 1479 1479 1479 1479 1479 1479 1479 1478
1478 1478 1478 1478 1478 1479 1479 1479 1479 1479 1480 1480 1480 1480 1480 1480 1480 1480 1480 1481 1481 1481 1481 1481 1481 1480 1480 1480 1480 1480 1479 1479 1479 1479 1478 1478 1478 1478 1478 1478 1478 1478 1478 1479 1479 1479 1479 1479 1479 1479 1479 1479 1479 1479 1479 1479 1479 1479 1479 1479 1479 1479 1479 1479 1479 1479 1478 1478 1478
1478 1478 1478 1478 1478 1479 1479 1479 1479 1479 1480 1480 1480 1480 1480 1480 1480 1480 1480 1480 1480 1481 1481 1481 1481 1480 1480 1480 1480 1480 1479 1479 1479 1479 1479 1479 1479 1479 1479 1479 1479 1479 1479 1479 1479 1480 1480 1479 1479 1479 1479 1479 1479 1479 1479 1479 1479 1479 1479 1479 1479 1479 1479 1478 1478 1478 1478 1478 1477
1478 1478 1478 1478 1478 1479 1479 1479 1479 1479 1480 1480 1480 1480 1480 1480 1480 1480 1480 1481 1481 1481 1481 1481 1481 1480 1480 1480 1480 1480 1479 1479 1479 1479 1479 1479 1479 1479 1479 1479 1479 1479 1479 1480 1480 1480 1480 1480 1479 1479 1479 1479 1479 1479 1479 1479 1479 1479 1479 1479 1478 1478 1478 1478 1478 1478 1478 1477 1477
1478 1478 1478 1478 1478 1479 1479 1479 1479 1479 1479 1480 1480 1480 1480 1480 1480 1481 1481 1481 1481 1481 1481 1481 1481 1480 1480 1480 1480 1480 1480 1479 1479 1479 1479 1479 1479 1480 1480 1480 1480 1480 1480 1480 1480 1480 1480 1480 1480 1479 1479 1479 1479 1479 1479 1479 1479 1478 1478 1478 1478 1478 1478 1478 1478 1478 1477 1477 1477
1478 1478 1478 1479 1479 1479 1479 1479 1479 1479 1479 1480 1480 1480 1480 1481 1481 1481 1481 1481 1481 1481 1481 1481 1481 1481 1481 1481 1481 1480 1480 1480 1480 1480 1480 1480 1480 1480 1480 1480 1480 1480 1480 1481 1481 1481 1480 1480 1480 1480 1480 1479 1479 1479 1479 1479 1478 1478 1478 1478 1478 1478 1478 1477 1477 1477 1477 1477 1476
1478 1478 1478 1479 1479 1479 1479 1479 1479 1479 1479 1480 1480 1480 1480 1480 1481 1481 1481 1481 1481 1481 1481 1481 1481 1481 1481 1481 1481 1481 1481 1480 1480 1480 1480 1481 1481 1481 1481 1481 1481 1481 1481 1481 1481 1481 1481 1481 1480 1480 1480 1480 1479 1479 1479 1478 1478 1478 1478 1478 1477 1477 1477 1477 1477 1477 1476 1476 1476
1478 1478 1479 1479 1479 1479 1479 1479 1479 1479 1480 1480 1480 1480 1480 1481 1481 1481 1481 1481 1482 1482 1482 1482 1482 1482 1481 1481 1481 1481 1481 1481 1481 1481 1481 1481 1481 1481 1481 1481 1481 1481 1481 1481 1481 1481 1481 1481 1480 1480 1480 1479 1479 1479 1478 1478 1478 1478 1477 1477 1477 1477 1477 1476 1476 1476 1476 1476 1476
1478 1478 1479 1479 1479 1479 1479 1479 1479 1479 1480 1480 1480 1480 1480 1481 1481 1481 1482 1482 1482 1482 1482 1482 1482 1482 1482 1482 1482 1482 1482 1482 1482 1482 1481 1481 1481 1482 1482 1482 1481 1481 1481 1481 1481 1481 1481 1481 1480 1480 1480 1479 1479 1479 1478 1478 1478 1477 1477 1477 1477 1476 1476 1476 1476 1476 1476 1476 1475
1478 1479 1479 1479 1479 1479 1479 1479 1479 1480 1480 1480 1480 1481 1481 1481 1481 1482 1482 1482 1483 1483 1483 1483 1483 1483 1483 1483 1482 1482 1482 1482 1482 1482 1482 1482 1482 1482 1482 1482 1482 1481 1481 1481 1481 1481 1481 1481 1480 1480 1480 1479 1479 1479 1478 1478 1478 1477 1477 1477 1477 1476 1476 1476 1476 1476 1475 1475 1475
1478 1479 1479 1479 1479 1479 1479 1479 1480 1480 1480 1481 1481 1481 1481 1482 1482 1482 1482 1483 1483 1483 1483 1483 1483 1483 1483 1483 1483 1483 1483 1483 1482 1482 1482 1482 1482 1482 1482 1482 1482 1482 1482 1481 1481 1481 1481 1481 1481 1480 1480 1480 1479 1479 1479 1478 1478 1477 1477 1477 1477 1476 1476 1476 1476 1476 1475 1475 1474
1479 1479 1479 1479 1479 1479 1480 1480 1480 1481 1481 1481 1481 1482 1482 1482 1482 1482 1483 1483 1483 1484 1484 1484 1484 1484 1483 1483 1483 1483 1483 1483 1483 1483 1483 1483 1483 1483 1482 1482 1482 1482 1482 1482 1482 1481 1481 1481 1481 1481 1480 1480 1480 1479 1479 1478 1478 1477 1477 1476 1476 1476 1476 1476 1475 1475 1475 1474 1474
1479 1479 1479 1479 1480 1480 1480 1481 1481 1481 1481 1482 1482 1482 1482 1483 1483 1483 1483 1484 1484 1484 1484 1484 1484 1484 1484 1484 1484 1483 1483 1483 1483 1483 1483 1483 1483 1483 1483 1483 1483 1483 1482 1482 1482 1482 1481 1481 1481 1481 1480 1480 1479 1479 1478 1478 1477 1477 1476 1476 1476 1476 1475 1475 1475 1474 1474 1474 1473
Wind_Speed
8 9 10 12 14 15 17 18 18 18 17 16 16 15 13 12 11 10 10 10 10 10 11 12 13 14 16 18 19 20 20 20 20 20 20 21 21 21 22 22 22 22 21 20 20 19 19 20 20 21 22 23 23 24 24 24 24 23 21 20 19 18 16 14 12 11 10 10 11
8 8 9 10 11 13 16 17 16 14 13 14 14 13 12 12 11 10 10 10 9 9 10 10 11 12 13 14 16 18 19 20 20 21 21 22 22 22 22 22 22 22 21 21 20 20 20 20 20 20 21 21 22 23 23 24 24 24 24 23 22 20 17 15 13 11 11 11 11
9 8 8 9 9 10 12 13 13 11 10 11 12 11 11 10 10 10 10 10 11 11 11 12 12 13 13 14 15 17 18 20 20 21 21 21 21 21 21 22 22 22 22 22 21 20 20 20 20 21 22 23 24 24 25 25 26 26 27 27 26 24 21 19 17 15 13 13 12
9 8 8 7 7 7 8 8 9 9 9 9 10 10 10 10 9 9 9 10 11 11 12 13 14 14 15 15 15 16 18 19 19 20 20 20 21 21 22 22 23 23 22 21 20 19 20 20 21 23 24 25 25 26 26 26 27 27 27 27 26 24 22 20 18 16 15 15 15
9 8 7 6 5 5 5 6 6 7 8 9 10 10 10 10 10 10 10 10 10 11 12 13 13 14 14 14 15 15 16 17 17 17 18 18 19 21 22 23 23 22 20 18 18 19 20 21 22 24 24 25 25 25 24 24 24 24 24 23 21 19 17 16 16 17 18 19 20
8 8 7 6 5 4 4 4 5 6 8 9 10 10 10 10 10 10 10 10 11 11 12 12 12 12 12 13 13 14 14 15 15 15 15 16 18 19 21 21 21 19 17 16 17 19 20 21 22 23 23 23 22 21 20 19 18 18 17 16 15 15 15 17 19 21 23 24 25
8 8 7 6 6 5 5 5 6 7 7 8 9 10 10 10 10 10 11 11 12 11 11 11 10 10 10 10 10 11 12 13 14 14 15 16 16 17 18 17 17 16 16 17 18 20 20 21 21 21 21 20 19 17 16 14 13 13 13 14 15 16 18 20 21 23 24 24 25
8 8 7 6 6 6 6 6 7 7 8 8 8 9 9 9 9 10 10 11 11 11 10 10 9 8 8 8 8 10 11 12 13 14 15 16 16 16 16 16 17 17 18 19 20 20 21 21 21 21 20 19 17 15 14 13 13 13 14 15 17 18 20 21 23 23 23 23 23
8 8 7 7 7 7 7 8 8 8 9 8 8 8 9 9 9 10 10 10 11 11 10 10 9 9 9 9 9 10 12 13 14 13 13 14 15 15 16 17 18 19 19 20 20 20 20 20 20 20 19 18 16 15 15 15 15 15 17 18 19 20 21 22 22 22 22 22 21
9 8 8 8 8 8 8 9 9 10 10 9 9 9 9 9 10 10 10 11 11 11 11 11 11 11 11 11 11 11 11 12 12 13 13 14 15 16 17 18 19 19 20 20 20 20 19 19 18 18 18 17 17 16 16 16 17 17 18 19 20 20 20 21 21 20 20 20 20
10 10 9 9 9 10 10 10 10 11 11 11 11 11 11 11 11 11 11 12 12 12 12 13 13 14 14 14 14 13 13 13 14 14 15 16 17 18 19 19 20 20 20 19 19 19 18 18 18 18 18 18 17 17 17 18 18 19 19 19 19 19 19 19 19 18 18 19 20
11 11 11 11 11 11 11 11 12 12 12 13 13 13 13 13 13 13 13 13 13 14 14 15 15 16 16 16 16 16 16 16 16 16 17 17 18 19 19 20 20 19 19 19 18 18 17 17 17 18 18 18 19 19 19 20 20 19 19 19 19 18 18 18 17 17 18 18 19
11 12 12 12 13 13 13 13 13 13 14 14 14 14 14 14 14 14 15 15 15 15 15 16 16 17 17 17 17 17 17 17 17 17 17 18 18 19 19 19 18 18 18 18 18 17 17 17 18 18 19 20 21 21 21 21 20 19 18 17 17 17 16 17 17 17 18 19 19
12 12 13 13 13 14 14 14 14 14 15 15 15 15 15 15 15 15 15 15 16 16 16 16 17 17 17 17 17 17 18 18 18 18 18 18 19 18 18 18 17 17 17 17 17 17 17 18 19 20 20 21 21 21 21 20 19 18 17 16 16 16 16 17 18 18 19 19 20
13 13 13 14 14 14 14 14 15 15 15 15 15 15 15 15 15 15 16 16 16 16 17 17 17 17 17 18 18 18 18 18 18 18 18 19 19 19 19 18 18 17 17 17 17 18 18 19 19 20 20 20 20 19 19 19 18 18 17 17 17 17 17 18 19 19 19 19 20
14 14 14 14 15 15 15 15 15 15 15 16 16 16 16 16 16 16 16 17 17 17 17 17 17 17 17 17 18 18 18 18 18 18 18 19 19 20 20 20 19 18 18 18 18 19 19 19 19 19 19 19 18 18 18 19 19 19 19 19 19 19 19 19 19 20 20 21 21
14 15 15 15 15 16 16 16 16 16 16 17 17 17 17 17 17 17 17 17 17 17 17 17 16 17 17 17 17 17 18 18 18 19 19 19 20 20 20 20 19 19 19 19 19 19 19 19 19 18 18 18 18 18 18 19 19 19 19 20 20 20 20 20 20 20 21 22 22
15 15 15 16 16 16 16 16 17 17 17 18 18 17 17 17 17 17 17 17 17 17 16 16 16 16 16 17 17 17 17 17 18 18 18 18 19 19 19 18 18 18 19 19 19 18 18 18 18 18 18 18 18 18 18 19 19 19 20 20 20 20 19 19 19 19 20 20 20
14 15 15 15 16 16 16 17 17 17 18 18 18 17 17 17 17 17 17 17 16 16 15 15 15 15 15 15 15 15 15 15 15 15 16 16 16 16 16 16 17 17 17 16 16 16 16 16 17 17 17 17 17 18 18 18 19 19 19 19 18 18 17 17 17 17 17 17 17
13 14 14 15 15 15 16 16 16 17 17 17 17 17 17 17 16 16 15 15 15 14 14 13 13 13 13 12 12 12 12 12 12 13 13 14 14 14 14 14 14 13 13 13 13 14 14 15 15 16 16 16 17 17 17 18 18 17 17 16 16 16 15 15 15 14 14 13 13
12 13 13 14 14 14 15 15 16 16 16 15 15 15 15 15 14 14 13 13 13 12 12 11 11 10 10 10 9 10 10 10 10 11 12 12 12 12 11 11 11 11 11 11 12 13 13 13 14 14 15 15 15 15 15 15 15 15 14 14 14 13 13 13 12 11 10 9 9
11 12 12 13 13 13 13 14 14 14 13 13 13 13 13 13 12 12 11 11 10 10 10 9 9 8 8 8 8 8 8 9 9 9 10 10 10 9 9 9 9 10 10 11 11 11 12 12 12 13 12 12 12 12 12 12 12 12 12 12 11 11 11 10 9 8 7 6 6
10 11 11 11 11 11 11 12 12 12 12 11 11 11 10 10 10 10 9 9 8 8 8 8 7 7 7 7 7 7 7 7 8 7 7 7 7 7 8 8 9 9 10 10 10 11 11 11 11 11 10 10 9 9 9 8 8 8 8 8 8 8 7 6 5 5 4 4 4
9 9 9 9 9 10 10 10 10 10 10 9 9 9 8 8 8 8 7 7 7 7 7 7 7 7 6 6 5 5 6 6 6 6 6 6 6 6 6 7 8 9 9 10 10 10 10 10 10 9 9 8 7 7 6 6 5 5 5 5 4 4 3 3 3 3 3 3 3
7 7 7 7 8 8 9 9 9 9 8 7 7 7 6 6 6 7 7 7 7 7 7 7 7 6 5 4 4 4 4 4 5 5 5 5 5 5 6 7 7 8 8 9 9 9 9 9 8 8 7 6 6 5 5 5 4 4 3 3 2 2 2 2 2 3 3 4 4
6 6 6 6 7 7 7 7 7 7 6 6 6 6 6 6 6 6 7 7 7 7 7 6 6 5 4 3 3 3 3 3 3 3 3 4 4 4 5 5 6 6 6 6 6 7 7 7 7 6 6 5 5 5 4 4 4 3 3 2 2 2 3 3 4 4 4 4 4
5 5 5 5 6 6 6 6 6 6 6 5 5 5 6 6 6 6 6 6 6 6 5 5 4 3 3 2 2 2 1 1 1 2 2 2 2 2 3 3 3 3 4 4 4 4 5 5 5 5 4 4 4 4 4 3 3 3 3 3 3 3 3 4 4 4 4 4 4
4 5 5 5 5 5 5 5 5 5 5 5 5 5 5 5 5 5 4 4 4 4 3 3 2 2 1 1 1 0 0 1 1 1 1 1 1 1 1 1 1 2 2 3 3 3 3 3 3 3 3 3 3 3 3 4 4 4 4 4 4 4 4 4 4 4 4 4 4
4 4 4 3 3 3 3 3 3 4 4 5 4 4 3 3 3 3 2 2 2 1 1 1 1 1 2 2 2 2 2 2 2 2 1 1 1 1 1 1 2 3 3 3 3 3 3 3 4 4 4 4 4 4 4 4 4 4 4 4 4 4 4 4 4 4 4 4 3
3 3 3 2 1 1 2 3 3 4 4 3 3 2 2 2 1 1 1 1 1 2 2 3 3 3 4 4 3 3 3 3 3 3 3 3 3 3 3 3 4 4 4 4 4 4 4 4 4 4 4 4 4 4 4 4 4 4 4 4 4 3 3 3 3 3 3 3 3
3 2 2 2 2 2 2 3 4 4 3 3 3 2 2 1 1 2 2 3 4 4 4 5 5 5 5 5 5 5 5 5 5 5 6 5 5 5 5 5 5 5 5 5 5 5 5 5 5 5 5 5 4 4 4 4 4 4 3 3 2 2 2 2 2 3 3 4 5
2 2 2 3 3 3 3 3 4 4 4 3 3 2 2 2 3 4 5 6 6 7 7 7 7 6 6 6 6 6 6 6 7 7 7 7 7 6 6 6 6 6 6 6 6 5 5 5 5 5 5 4 4 4 3 3 3 2 2 2 2 2 3 3 4 5 5 6 7
2 3 3 3 3 3 3 3 4 4 4 4 3 3 3 4 5 6 7 8 9 9 9 9 8 8 8 7 7 7 7 7 7 8 8 8 8 7 7 6 6 7 7 6 6 5 5 5 4 4 4 4 3 3 2 2 1 1 2 2 3 4 5 5 6 7 7 8 8
2 2 3 3 3 3 3 4 4 5 5 4 4 5 6 6 7 8 9 10 10 10 10 9 8 8 8 8 8 8 8 9 9 9 9 9 9 8 7 7 7 7 7 6 6 5 4 4 4 3 3 2 2 2 2 2 2 3 3 4 5 5 6 7 7 8 8 8 9
1 2 3 4 4 4 4 4 5 5 5 5 6 7 8 8 9 10 10 10 10 10 9 9 9 9 9 9 10 10 10 10 10 10 10 10 9 8 7 6 7 6 6 6 5 4 4 3 3 3 3 3 3 3 4 4 5 5 5 6 6 7 7 7 8 8 8 8 8
2 3 4 4 4 5 5 5 5 5 6 6 7 8 9 10 11 11 11 10 10 10 10 10 11 11 11 11 11 11 11 11 10 10 10 9 8 7 6 6 6 6 5 5 5 4 4 4 5 5 5 5 6 6 6 6 6 7 7 7 7 7 7 7 7 7 7 7 7
3 4 4 5 5 5 5 5 6 6 7 8 9 10 11 12 12 12 12 11 11 11 11 12 12 12 11 11 11 11 11 10 10 9 9 8 8 7 6 6 6 6 6 6 6 6 6 6 6 6 7 7 7 7 7 7 7 7 7 7 7 7 7 7 7 7 7 7 7
5 5 5 5 5 6 6 6 7 7 8 10 11 12 13 13 13 14 13 13 12 12 12 12 12 12 11 11 11 10 10 10 9 9 8 8 8 8 7 7 7 7 7 7 7 7 7 7 7 7 7 7 7 7 7 7 7 6 6 6 6 6 6 6 6 7 7 7 7
6 7 7 6 6 7 7 8 8 9 10 11 12 13 14 14 15 15 14 13 13 12 12 12 11 11 11 11 10 10 10 10 9 9 9 9 8 8 8 8 7 7 7 7 7 6 6 6 6 7 7 7 6 6 6 6 6 6 6 6 6 6 7 7 7 7 7 7 7
8 8 8 8 9 9 9 10 10 11 12 13 14 15 15 15 15 15 14 14 13 12 11 11 11 11 11 11 10 10 10 10 9 9 9 9 8 8 8 7 7 7 6 6 6 5 5 6 6 6 6 6 6 6 6 6 6 6 6 7 7 8 8 8 8 7 7 7 7
9 10 10 10 11 11 11 12 12 13 14 14 15 15 15 15 15 15 14 13 12 12 11 11 11 11 11 11 11 10 10 10 9 9 8 8 8 7 7 6 6 6 5 5 5 5 5 5 5 6 6 6 7 7 7 7 7 8 8 9 9 9 9 9 9 9 8 8 8
Wind_Direction
226 231 234 236 237 237 236 235 235 237 240 242 246 249 252 253 254 252 249 246 243 240 238 237 239 243 247 250 251 252 252 253 254 255 257 258 260 263 265 267 269 270 272 273 273 272 270 269 269 270 273 277 280 282 283 284 284 283 282 280 279 278 279 280 286 296 306 313 313
213 217 222 227 231 234 236 236 235 236 237 238 242 246 250 254 254 253 251 247 242 236 231 228 228 231 236 240 243 245 245 246 247 249 252 254 257 260 263 266 269 270 270 270 270 270 271 273 276 279 283 286 288 289 289 288 285 281 277 273 272 272 273 275 277 282 292 303 312
209 211 213 217 222 227 230 231 230 228 228 229 233 236 241 246 250 249 245 241 237 233 229 227 226 227 228 232 235 238 239 241 242 244 248 252 256 259 263 267 269 270 270 270 272 275 279 283 286 288 290 291 293 294 294 291 287 282 276 272 271 270 271 271 273 277 283 292 301
207 206 207 210 214 218 221 221 218 214 213 215 220 225 228 231 234 234 234 234 233 231 229 227 228 229 229 229 230 233 236 239 241 244 247 252 257 261 264 267 268 269 271 273 278 283 287 290 292 293 294 295 297 297 296 292 288 283 278 274 273 272 274 277 282 288 295 301 306
203 201 202 204 206 207 209 210 209 209 209 207 208 210 214 219 221 223 225 228 230 231 231 230 228 227 226 225 226 228 232 235 239 243 248 253 259 264 266 266 266 267 270 276 282 287 290 292 293 295 296 298 299 298 296 292 287 283 279 277 277 279 283 290 296 301 304 306 308
199 198 198 198 196 193 191 196 205 210 209 205 201 201 205 211 215 218 221 225 230 234 235 234 232 229 227 225 224 224 226 229 235 241 247 253 258 261 262 261 259 260 266 274 280 285 287 290 292 293 295 297 297 297 295 291 287 283 282 283 285 289 294 297 299 301 301 302 302
199 197 196 195 192 190 191 200 209 213 212 208 206 206 208 211 215 218 222 228 233 237 239 241 239 237 234 231 228 226 227 232 239 243 247 250 252 253 254 254 255 259 266 272 276 279 282 284 286 288 290 291 292 292 290 288 286 285 286 288 289 291 293 295 296 297 298 298 299
208 205 203 203 203 206 212 216 220 220 217 213 212 214 217 220 222 225 228 231 234 238 242 245 247 248 247 245 243 243 244 247 251 254 255 257 258 260 261 263 266 269 271 273 274 276 277 279 281 282 283 283 283 282 282 282 282 283 285 286 288 289 291 293 295 296 297 297 298
225 223 222 222 223 227 230 231 232 230 226 221 219 220 224 227 230 232 234 235 238 241 244 248 253 256 257 258 258 258 257 258 260 263 266 267 268 270 271 271 271 271 272 273 274 275 276 277 278 277 277 275 273 272 274 276 278 280 282 284 287 289 291 293 295 296 297 298 298
242 241 241 241 241 241 242 242 241 240 237 233 230 230 231 233 235 237 239 241 243 246 250 254 259 263 266 267 268 267 266 264 265 266 268 269 271 271 271 271 272 272 273 274 276 276 276 274 271 269 268 266 264 265 268 271 275 278 281 283 286 289 291 293 295 296 298 299 299
251 252 252 252 251 249 249 249 248 248 247 245 244 243 242 243 244 246 247 249 251 255 258 262 266 270 272 273 274 275 274 273 272 271 271 271 272 272 272 273 273 274 274 274 275 274 271 268 263 260 259 259 260 262 266 269 273 276 279 282 285 289 291 293 295 296 297 298 299
258 258 258 257 256 255 255 254 254 253 254 254 255 255 255 255 255 256 258 260 262 265 267 270 273 276 277 278 279 279 279 278 277 276 275 273 273 272 272 273 274 274 273 272 272 270 267 263 258 256 256 259 263 266 268 270 273 276 279 283 286 289 291 293 294 295 297 298 298
261 261 261 260 259 259 259 259 258 258 259 260 262 263 263 263 264 265 267 269 271 273 274 276 278 279 280 281 281 281 280 279 278 276 275 273 272 272 272 272 272 272 272 271 270 268 266 262 260 260 261 264 268 270 271 272 274 277 280 283 286 288 291 292 294 296 297 298 298
261 262 262 262 262 262 262 261 260 261 262 263 264 265 266 268 269 272 274 276 276 277 278 279 280 280 281 281 280 279 278 277 276 275 273 272 271 271 270 270 269 269 268 268 267 265 264 263 264 265 267 269 271 272 273 274 276 278 281 283 286 288 290 292 294 295 296 297 297
262 263 263 263 263 264 263 261 261 262 264 264 264 265 268 270 273 274 275 276 276 276 277 278 278 279 279 278 278 277 276 276 275 274 272 272 271 270 269 268 266 265 264 264 264 264 264 266 268 270 272 273 273 274 275 276 278 281 283 285 287 289 291 292 293 294 294 295 296
264 265 265 265 265 265 264 262 262 262 262 263 264 267 269 272 273 273 273 273 273 274 275 276 277 277 277 277 277 277 276 276 275 274 273 272 271 271 269 268 265 263 262 262 263 265 267 269 271 273 274 275 275 276 277 280 282 285 287 289 291 292 292 292 292 293 293 294 295
265 265 266 266 266 265 264 263 262 262 262 262 265 267 269 270 271 271 271 271 273 274 276 277 277 277 278 279 280 280 280 279 279 278 277 275 274 273 272 271 268 266 265 265 267 269 271 273 275 277 278 280 281 282 284 287 289 291 293 293 294 294 293 293 293 293 294 294 295
264 265 265 266 266 265 265 263 263 263 263 264 266 268 269 269 270 271 272 273 275 277 279 280 280 280 281 283 284 285 286 286 287 287 285 283 281 280 278 276 275 274 273 274 276 278 281 284 286 287 289 290 291 292 293 295 295 296 296 295 295 294 294 294 294 294 295 296 297
264 264 265 265 265 265 265 264 264 265 265 266 268 269 270 271 272 274 277 278 280 281 283 284 284 285 286 288 290 291 294 296 297 298 296 294 292 291 288 286 285 284 285 287 289 292 295 297 298 299 299 300 300 301 301 300 300 299 298 297 296 296 295 294 294 295 295 297 298
264 264 264 264 265 265 265 265 265 266 266 268 269 271 273 275 277 280 282 283 284 285 286 287 289 290 291 293 295 297 301 304 307 308 307 306 306 304 301 299 298 298 299 301 304 306 306 306 305 304 304 304 305 305 304 304 303 303 301 300 299 297 296 294 294 294 295 297 299
265 264 264 264 264 264 265 266 266 267 269 271 274 276 278 281 283 284 285 286 287 287 289 290 292 292 292 293 295 299 305 311 314 316 317 317 317 316 315 314 313 313 313 313 312 310 308 306 304 303 303 304 304 305 305 306 306 305 304 302 300 298 295 294 293 293 295 297 297
269 267 267 267 268 268 269 270 271 273 276 278 279 280 281 283 285 286 286 287 288 289 290 290 290 288 287 288 293 300 309 316 320 323 325 326 327 326 326 325 322 320 317 313 309 305 302 299 298 298 298 299 300 301 303 304 304 303 301 300 298 297 295 294 293 293 294 295 296
275 274 275 275 276 277 277 278 280 280 281 282 282 281 281 282 283 285 286 286 286 286 284 283 281 280 281 285 294 305 314 321 325 329 331 332 332 332 329 326 322 317 311 305 300 294 290 288 288 289 290 292 294 297 299 300 300 299 299 298 296 295 294 295 297 298 301 306 312
280 282 283 284 284 284 283 282 282 281 281 281 281 280 279 280 281 282 282 280 278 275 273 272 272 273 277 284 295 308 316 320 322 322 323 323 323 322 320 315 309 303 297 293 288 284 281 281 282 285 288 291 294 296 299 301 303 304 303 302 300 298 298 302 311 322 335 346 358
286 287 289 289 288 286 284 284 283 282 282 282 281 279 278 277 276 274 271 269 267 266 266 266 268 268 272 279 290 301 307 310 309 307 306 307 307 306 302 298 293 290 287 285 283 283 284 287 289 293 297 301 305 308 312 317 320 322 322 321 326 332 342 359 11 15 20 27 32
289 289 289 289 288 287 286 287 288 289 288 286 281 277 273 268 264 261 260 260 260 262 264 264 262 261 264 272 281 288 293 300 304 307 309 310 307 303 298 295 292 289 288 290 293 297 301 304 307 312 316 320 324 327 331 335 341 346 352 357 2 9 19 30 38 40 41 42 41
289 289 290 292 291 289 289 292 294 293 290 284 277 268 261 255 253 253 252 253 255 259 261 257 252 251 256 264 269 275 284 304 327 342 347 343 334 320 311 304 301 303 310 316 321 324 325 328 331 335 339 342 343 345 351 1 9 16 24 30 32 33 35 40 43 45 46 43 38
290 292 293 294 292 291 293 296 293 286 278 270 262 254 249 247 245 245 243 245 250 255 253 244 238 239 241 227 204 172 127 85 68 55 38 11 337 309 304 307 327 350 2 3 4 4 3 2 6 9 12 14 17 18 24 32 40 46 49 51 50 49 49 48 47 44 41 36 29
291 293 293 292 291 293 294 290 275 263 256 251 247 242 238 236 235 233 233 236 243 240 216 184 174 159 141 129 122 114 106 98 87 73 59 41 13 351 352 9 38 45 43 38 38 38 40 40 42 45 49 50 52 53 55 59 62 64 64 62 60 57 55 51 47 40 32 24 13
284 286 285 279 268 262 261 254 246 239 235 232 228 227 227 225 216 202 167 115 119 124 125 120 118 117 115 110 105 104 104 97 84 74 67 59 49 41 37 41 53 57 58 57 59 61 63 63 65 67 69 70 70 71 73 73 73 72 70 68 63 58 52 44 34 22 9 356 346
267 263 250 225 205 204 220 228 223 215 209 208 209 209 207 188 125 100 99 103 111 115 115 111 113 113 112 107 106 106 103 97 89 84 77 69 62 56 54 56 63 69 74 77 79 81 81 82 82 84 84 84 83 83 82 81 79 76 73 67 57 44 29 11 357 346 337 330 324
247 230 211 193 188 198 213 218 206 197 192 192 188 178 152 119 108 108 109 110 110 110 110 111 113 114 112 111 111 108 103 98 94 90 85 80 75 72 71 74 80 85 89 91 93 93 93 93 93 94 93 92 91 90 87 85 81 74 62 40 13 354 345 338 332 327 322 318 314
234 213 200 192 193 204 214 209 195 186 181 175 163 142 124 116 116 115 114 111 111 110 112 114 115 113 111 109 106 103 99 96 94 92 90 87 85 84 86 89 93 95 96 97 97 96 96 96 96 95 95 94 92 89 82 73 54 26 2 346 337 331 327 323 320 317 314 311 308
221 208 202 201 204 206 203 195 184 176 168 159 144 132 123 119 116 115 114 114 114 116 118 119 118 114 110 107 102 99 96 95 94 94 94 92 92 92 93 96 96 96 96 95 93 92 90 88 85 82 78 72 60 46 27 11 357 346 341 337 332 326 322 318 315 312 309 307 304
198 199 200 202 202 197 188 179 168 161 154 146 136 128 123 120 116 115 115 116 118 121 121 119 115 111 107 105 102 100 99 98 98 98 97 96 96 95 94 93 91 90 89 87 83 77 69 62 51 41 31 23 15 8 2 356 351 346 342 337 331 326 321 317 313 310 308 305 301
166 183 192 194 190 182 172 161 152 147 143 138 131 126 123 121 119 118 117 118 120 121 120 115 112 109 106 105 104 103 103 101 100 99 98 97 95 91 87 84 81 77 74 69 62 53 44 35 28 21 15 11 7 4 360 356 351 346 341 336 329 323 317 314 310 308 305 302 299
151 166 178 184 177 166 154 145 140 138 136 133 129 126 124 124 122 121 119 119 121 120 117 114 111 109 107 106 105 104 103 102 99 97 94 91 87 82 75 69 64 61 57 52 45 39 32 26 20 16 11 7 3 360 356 352 346 341 336 330 323 318 313 310 306 304 302 300 299
151 157 164 166 158 148 139 133 132 132 132 130 129 128 127 127 125 123 122 121 121 119 116 114 112 111 109 107 104 102 99 96 93 89 86 82 77 71 63 56 52 49 47 43 37 32 26 21 16 11 7 2 358 353 348 344 338 332 327 321 315 311 308 307 305 305 304 303 302
150 150 150 145 140 133 129 127 128 130 130 131 130 130 130 129 127 125 124 122 121 120 118 116 114 112 108 104 99 94 91 87 84 80 75 71 67 61 55 47 42 40 39 37 32 27 22 17 13 8 3 358 353 346 340 334 328 323 319 316 314 312 311 311 311 310 309 309 309
144 141 137 133 129 126 125 127 128 131 132 132 131 131 131 130 128 127 125 124 123 122 120 116 113 109 103 96 90 85 80 77 74 71 67 63 59 55 48 41 35 32 33 32 28 23 18 13 10 5 1 355 349 343 336 332 330 328 326 324 324 323 323 322 321 319 316 315 313
133 130 127 125 124 124 126 128 130 132 133 133 133 132 132 131 129 128 126 125 124 122 119 114 108 102 95 89 82 76 72 68 65 63 60 57 54 50 44 36 29 26 27 28 26 20 14 10 6 2 360 357 352 347 344 341 340 340 338 336 333 333 332 331 329 327 324 321 319